Location: Killarney
(45.9719°N, 81.5115°W)
Time: 10:55:34
(UTC-05:00)

ISS - Visible Passes

Search period start: 19 February 2018 00:00
Search period end: 01 March 2018 00:00
Orbit: 403 x 407 km, 51.6° (Epoch: 20 February)

Date Brightness Start Highest point End Pass type
(mag) Time Alt. Az. Time Alt. Az. Time Alt. Az.
26 Feb -1.7 06:34:16 10° SSW 06:37:07 27° SE 06:39:57 10° E visible
27 Feb -1.0 05:42:54 10° S 05:45:01 16° SE 05:47:08 10° E visible
28 Feb -3.3 06:25:37 10° SW 06:28:51 58° SSE 06:32:04 10° ENE visible
